User: anonymous   Login
Location: Unspecified
(0.0000°N, 0.0000°E)
Time: 18:51:06
(UTC+00:00)
Language:

P76-5 - Orbit

View from above orbital plane
View from above orbital plane
View from above satellite
View from above satellite

Ground track
Ground track

The orbit data is extracted from the following two-line orbital elements,

1  8860U 76047A   17267.93632971 +.00000015 +00000-0 +71427-4 0  9990
2  8860 099.6821 017.3133 0042241 193.8034 275.3273 13.67556788060661
Epoch (UTC): 24 September 2017 22:28:18
Eccentricity: 0.0042241
inclination: 99.6821°
perigee height: 977 km
apogee height: 1039 km
right ascension of ascending node: 17.3133°
argument of perigee: 193.8034°
revolutions per day: 13.67556788
mean anomaly at epoch: 275.3273°
orbit number at epoch: 6066

The dashed part of the orbit path shows where the satellite is in the earth's shadow,  

DLR